DELTA 4 R/B, 40535

Orbit data source: Space-Track

DELTA 4 R/B, 40535 is space debris in MEO originally from a launch on Wed, 25 Mar 2015 UTC launched from the Air Force Eastern Test Range (AFETR). Debris objects in space refer to the collection of defunct objects orbiting the Earth. Examples of debris include non-operational satellites, rocket bodies, and fragments generated from explosions, collisions, or faulty payload assembly.

Loading next visibility...
Identifier
40535, 2015-013B
Orbit
MEO
Country
Flag of USUS
Related business
Flag of USUnited Launch Alliance/Lockheed Martin (US)
Manufacturer
ULA Decatur
Mission
Spacecraft
Bus & Motor
DCSS-4, RL10B-2
Mass
2,850 kg wet, 2,850 kg dry
Launch date (UTC)
2015-03-25 (11 years ago)
Launch vehicle
Unknown
Launch site
Air Force Eastern Test Range (AFETR)
Object type
Payload
Rocket body
Debris
Shape & HBR
Cyl + 1 Nozzle, 6.0 m
Radar Cross Section
43.982 m², Large (>1 m²)

Expand to show TLE details & history
Last TLE update: 18 hours ago

TLE from 18 hours ago
0 DELTA 4 R/B
1 40535U 15013B   26072.10292750  .00000023  00000-0  00000-0 0  9995
2 40535  52.6688 219.8377 0034237  66.4174 293.9068  1.92974629 77301
Epoch: 2026-03-13T02:28Z
TLE epoch observation values (Epoch: 2026-03-13T02:28:12.936Z)
Latitude
-0°
Longitude
12.03109°
Altitude
20,836.727 km
Speed
3.83 km/s
True Right ascension
14h 39m 18s
True Declination
0° 00' 00"
Sunlit
Object was in daylight at epoch
Visualization orbit readout
Latitude
Unknown
Longitude
Unknown
Altitude
Unknown
Speed
Unknown
Apparent Right ascension
Unknown
Apparent Declination
Unknown
Sunlit
N/A
Visualization observer readout
Local Sidereal Time
00:36:23
Azimuth
Unknown
Elevation
Unknown
Doppler factor
Unknown
Orbital elements
Apogee altitude
20,967.475 km
Perigee altitude
20,780.868 km
Semi-major axis
27,252.308 km
Eccentricity
0.00342
Inclination
52.6688°
RAAN
219.8377°
Arg. of periapsis
66.4174°
True anomaly
293.54751°
Mean anomaly
293.9068°
Eccentric anomaly
293.72722°
Mean motion
0.48243 °/min
Orbital period
746.22 mins
BSTAR
0
Loading maneuver chart data...
Computing Atmospheric mass density...
Loading historical data...
Loading historical data...
Loading historical data...
Loading historical data...
Loading historical data...
Loading historical data...
Loading historical data...

Documentation

Showing up to 5 results
|